Time,TemperatureF,DewpointF,PressureIn,WindDirection,WindDirectionDegrees,WindSpeedMPH,WindSpeedGustMPH,Humidity,HourlyPrecipIn,Conditions,Clouds,dailyrainin,SoftwareType,DateUTC
2013-03-27 00:00:00,38.7,26.0,30.31,SE,140,0.0,1.0,60,0.00,,---,0.00,VWS V14.01,2013-03-27 05:00:00,
2013-03-27 00:05:00,38.7,25.6,30.30,SE,140,4.0,4.0,59,0.00,,---,0.00,VWS V14.01,2013-03-27 05:05:00,
2013-03-27 00:10:00,38.4,25.7,30.30,SE,140,4.0,4.0,60,0.00,,---,0.00,VWS V14.01,2013-03-27 05:10:00,
2013-03-27 00:15:00,38.2,25.5,30.29,SE,140,4.0,4.0,60,0.00,,---,0.00,VWS V14.01,2013-03-27 05:15:00,
2013-03-27 00:20:00,38.0,25.4,30.29,SE,140,2.0,2.0,60,0.00,,---,0.00,VWS V14.01,2013-03-27 05:20:00,
2013-03-27 00:25:00,38.0,25.4,30.29,SE,140,2.0,2.0,60,0.00,,---,0.00,VWS V14.01,2013-03-27 05:25:00,
2013-03-27 00:30:00,38.1,25.5,30.29,SE,138,4.0,4.0,60,0.00,,---,0.00,VWS V14.01,2013-03-27 05:30:00,
2013-03-27 00:35:00,38.1,25.5,30.29,SE,137,0.0,2.0,60,0.00,,---,0.00,VWS V14.01,2013-03-27 05:35:00,
2013-03-27 00:40:00,38.0,25.8,30.29,SE,136,4.0,4.0,61,0.00,,---,0.00,VWS V14.01,2013-03-27 05:40:00,
2013-03-27 00:45:00,37.9,25.7,30.28,SE,135,4.0,4.0,61,0.00,,---,0.00,VWS V14.01,2013-03-27 05:45:00,
2013-03-27 00:50:00,37.7,25.5,30.28,SE,135,6.0,6.0,61,0.00,,---,0.00,VWS V14.01,2013-03-27 05:50:00,
2013-03-27 00:55:00,37.5,25.7,30.28,SE,134,4.0,4.0,62,0.00,,---,0.00,VWS V14.01,2013-03-27 05:55:00,
2013-03-27 01:00:00,37.4,25.6,30.29,SE,133,6.0,6.0,62,0.00,,---,0.00,VWS V14.01,2013-03-27 06:00:00,
2013-03-27 01:05:00,37.2,25.8,30.29,SE,133,2.0,2.0,63,0.00,,---,0.00,VWS V14.01,2013-03-27 06:05:00,
2013-03-27 01:10:00,37.1,25.7,30.29,SE,133,4.0,4.0,63,0.00,,---,0.00,VWS V14.01,2013-03-27 06:10:00,
2013-03-27 01:15:00,36.9,25.5,30.29,SE,133,2.0,2.0,63,0.00,,---,0.00,VWS V14.01,2013-03-27 06:15:00,
2013-03-27 01:20:00,37.0,26.0,30.28,SE,133,6.0,6.0,64,0.00,,---,0.00,VWS V14.01,2013-03-27 06:20:00,
2013-03-27 01:25:00,37.0,26.0,30.28,SE,133,6.0,6.0,64,0.00,,---,0.00,VWS V14.01,2013-03-27 06:25:00,
2013-03-27 01:30:00,36.9,25.9,30.28,SE,130,4.0,4.0,64,0.00,,---,0.00,VWS V14.01,2013-03-27 06:30:00,
2013-03-27 01:35:00,36.6,26.0,30.28,SE,130,2.0,2.0,65,0.00,,---,0.00,VWS V14.01,2013-03-27 06:35:00,
2013-03-27 01:40:00,36.4,26.1,30.28,SE,130,4.0,4.0,66,0.00,,---,0.00,VWS V14.01,2013-03-27 06:40:00,
2013-03-27 01:45:00,36.0,26.1,30.27,SE,130,4.0,4.0,67,0.00,,---,0.00,VWS V14.01,2013-03-27 06:45:00,
2013-03-27 01:50:00,36.0,26.1,30.27,SE,130,4.0,4.0,67,0.00,,---,0.00,VWS V14.01,2013-03-27 06:50:00,
2013-03-27 01:55:00,36.1,26.2,30.27,SE,130,6.0,6.0,67,0.00,,---,0.00,VWS V14.01,2013-03-27 06:55:00,
2013-03-27 02:00:00,36.0,26.1,30.26,SE,130,0.0,2.0,67,0.00,,---,0.00,VWS V14.01,2013-03-27 07:00:00,
2013-03-27 02:05:00,35.9,26.0,30.26,SE,130,4.0,4.0,67,0.00,,---,0.00,VWS V14.01,2013-03-27 07:05:00,
2013-03-27 02:10:00,35.8,25.9,30.26,SE,130,4.0,4.0,67,0.00,,---,0.00,VWS V14.01,2013-03-27 07:10:00,
2013-03-27 02:15:00,35.7,26.2,30.26,SE,130,4.0,4.0,68,0.00,,---,0.00,VWS V14.01,2013-03-27 07:15:00,
2013-03-27 02:20:00,35.7,26.2,30.26,SE,130,6.0,6.0,68,0.00,,---,0.00,VWS V14.01,2013-03-27 07:20:00,
2013-03-27 02:25:00,35.6,26.1,30.26,SE,129,4.0,4.0,68,0.00,,---,0.00,VWS V14.01,2013-03-27 07:25:00,
2013-03-27 02:30:00,35.5,26.0,30.26,SE,129,4.0,4.0,68,0.00,,---,0.00,VWS V14.01,2013-03-27 07:30:00,
2013-03-27 02:35:00,35.4,25.9,30.26,SE,129,4.0,4.0,68,0.00,,---,0.00,VWS V14.01,2013-03-27 07:35:00,
2013-03-27 02:40:00,35.3,25.8,30.26,SE,129,0.0,1.0,68,0.00,,---,0.00,VWS V14.01,2013-03-27 07:40:00,
2013-03-27 02:45:00,35.2,25.7,30.26,SE,129,2.0,2.0,68,0.00,,---,0.00,VWS V14.01,2013-03-27 07:45:00,
2013-03-27 02:50:00,35.2,25.7,30.25,SE,129,2.0,3.0,68,0.00,,---,0.00,VWS V14.01,2013-03-27 07:50:00,
2013-03-27 02:55:00,35.3,25.8,30.25,SE,129,2.0,3.0,68,0.00,,---,0.00,VWS V14.01,2013-03-27 07:55:00,
2013-03-27 03:00:00,35.5,25.6,30.25,SE,130,2.0,3.0,67,0.00,,---,0.00,VWS V14.01,2013-03-27 08:00:00,
2013-03-27 03:05:00,35.8,25.6,30.25,ESE,123,8.0,8.0,66,0.00,,---,0.00,VWS V14.01,2013-03-27 08:05:00,
2013-03-27 03:10:00,36.0,25.8,30.25,ESE,114,8.0,8.0,66,0.00,,---,0.00,VWS V14.01,2013-03-27 08:10:00,
2013-03-27 03:15:00,36.2,25.6,30.24,ESE,117,2.0,4.0,65,0.00,,---,0.00,VWS V14.01,2013-03-27 08:15:00,
2013-03-27 03:20:00,36.3,25.7,30.24,ESE,105,6.0,6.0,65,0.00,,---,0.00,VWS V14.01,2013-03-27 08:20:00,
2013-03-27 03:25:00,36.2,25.6,30.24,ESE,105,6.0,6.0,65,0.00,,---,0.00,VWS V14.01,2013-03-27 08:25:00,
2013-03-27 03:30:00,35.9,25.3,30.24,ESE,105,8.0,8.0,65,0.00,,---,0.00,VWS V14.01,2013-03-27 08:30:00,
2013-03-27 03:35:00,36.0,25.4,30.24,ESE,105,10.0,10.0,65,0.00,,---,0.00,VWS V14.01,2013-03-27 08:35:00,
2013-03-27 03:40:00,36.1,25.5,30.24,ESE,107,4.0,4.0,65,0.00,,---,0.00,VWS V14.01,2013-03-27 08:40:00,
2013-03-27 03:45:00,36.2,25.6,30.24,ESE,105,4.0,4.0,65,0.00,,---,0.00,VWS V14.01,2013-03-27 08:45:00,
2013-03-27 03:50:00,36.3,25.3,30.24,ESE,104,6.0,6.0,64,0.00,,---,0.00,VWS V14.01,2013-03-27 08:50:00,
2013-03-27 03:55:00,36.4,25.4,30.24,ESE,104,8.0,8.0,64,0.00,,---,0.00,VWS V14.01,2013-03-27 08:55:00,
2013-03-27 04:00:00,36.4,25.4,30.23,ESE,104,8.0,8.0,64,0.00,,---,0.00,VWS V14.01,2013-03-27 09:00:00,
2013-03-27 04:05:00,36.5,25.5,30.23,ESE,118,8.0,8.0,64,0.00,,---,0.00,VWS V14.01,2013-03-27 09:05:00,
2013-03-27 04:10:00,36.5,25.5,30.23,East,101,4.0,6.0,64,0.00,,---,0.00,VWS V14.01,2013-03-27 09:10:00,
2013-03-27 04:15:00,36.6,25.6,30.23,ESE,112,6.0,6.0,64,0.00,,---,0.00,VWS V14.01,2013-03-27 09:15:00,
2013-03-27 04:20:00,36.4,25.8,30.23,ESE,103,8.0,8.0,65,0.00,,---,0.00,VWS V14.01,2013-03-27 09:20:00,
2013-03-27 04:25:00,36.4,25.8,30.23,ESE,104,4.0,4.0,65,0.00,,---,0.00,VWS V14.01,2013-03-27 09:25:00,
2013-03-27 04:30:00,36.2,25.6,30.23,ESE,111,8.0,8.0,65,0.00,,---,0.00,VWS V14.01,2013-03-27 09:30:00,
2013-03-27 04:35:00,36.2,26.0,30.23,ESE,110,4.0,5.0,66,0.00,,---,0.00,VWS V14.01,2013-03-27 09:35:00,
2013-03-27 04:40:00,36.1,25.9,30.24,ESE,121,6.0,6.0,66,0.00,,---,0.00,VWS V14.01,2013-03-27 09:40:00,
2013-03-27 04:45:00,36.0,25.8,30.24,ESE,121,2.0,3.0,66,0.00,,---,0.00,VWS V14.01,2013-03-27 09:45:00,
2013-03-27 04:50:00,35.8,25.6,30.24,ESE,121,4.0,4.0,66,0.00,,---,0.00,VWS V14.01,2013-03-27 09:50:00,
2013-03-27 04:55:00,35.7,25.8,30.24,ESE,121,2.0,2.0,67,0.00,,---,0.00,VWS V14.01,2013-03-27 09:55:00,
2013-03-27 05:00:00,35.7,25.8,30.24,ESE,121,2.0,2.0,67,0.00,,---,0.00,VWS V14.01,2013-03-27 10:00:00,
2013-03-27 05:05:00,35.6,26.1,30.24,ESE,121,0.0,2.0,68,0.00,,---,0.00,VWS V14.01,2013-03-27 10:05:00,
2013-03-27 05:10:00,35.9,26.4,30.24,SE,124,4.0,4.0,68,0.00,,---,0.00,VWS V14.01,2013-03-27 10:10:00,
2013-03-27 05:15:00,36.1,26.2,30.24,SE,130,2.0,2.0,67,0.00,,---,0.00,VWS V14.01,2013-03-27 10:15:00,
2013-03-27 05:20:00,36.1,26.2,30.24,SE,128,6.0,6.0,67,0.00,,---,0.00,VWS V14.01,2013-03-27 10:20:00,
2013-03-27 05:25:00,36.2,26.3,30.24,SE,137,6.0,6.0,67,0.00,,---,0.00,VWS V14.01,2013-03-27 10:25:00,
2013-03-27 05:30:00,36.4,26.5,30.24,SE,133,4.0,4.0,67,0.00,,---,0.00,VWS V14.01,2013-03-27 10:30:00,
2013-03-27 05:35:00,36.4,26.5,30.24,SE,139,8.0,8.0,67,0.00,,---,0.00,VWS V14.01,2013-03-27 10:35:00,
2013-03-27 05:40:00,36.3,26.4,30.24,SE,125,2.0,2.0,67,0.00,,---,0.00,VWS V14.01,2013-03-27 10:40:00,
2013-03-27 05:45:00,36.0,26.5,30.24,SE,126,4.0,4.0,68,0.00,,---,0.00,VWS V14.01,2013-03-27 10:45:00,
2013-03-27 05:50:00,35.8,26.3,30.24,SE,126,2.0,2.0,68,0.00,,---,0.00,VWS V14.01,2013-03-27 10:50:00,
2013-03-27 05:55:00,35.5,26.4,30.25,SE,126,0.0,2.0,69,0.00,,---,0.00,VWS V14.01,2013-03-27 10:55:00,
2013-03-27 06:00:00,35.3,26.2,30.25,SE,126,0.0,1.0,69,0.00,,---,0.00,VWS V14.01,2013-03-27 11:00:00,
2013-03-27 06:05:00,35.0,25.9,30.25,SE,126,0.0,1.0,69,0.00,,---,0.00,VWS V14.01,2013-03-27 11:05:00,
2013-03-27 06:10:00,34.7,25.9,30.25,SE,126,0.0,1.0,70,0.00,,---,0.00,VWS V14.01,2013-03-27 11:10:00,
2013-03-27 06:15:00,34.4,26.0,30.25,SE,126,2.0,2.0,71,0.00,,---,0.00,VWS V14.01,2013-03-27 11:15:00,
2013-03-27 06:20:00,34.3,25.9,30.25,SE,126,0.0,0.0,71,0.00,,---,0.00,VWS V14.01,2013-03-27 11:20:00,
2013-03-27 06:25:00,34.2,25.8,30.25,SE,126,0.0,0.0,71,0.00,,---,0.00,VWS V14.01,2013-03-27 11:25:00,
2013-03-27 06:30:00,34.1,25.7,30.25,SE,126,4.0,4.0,71,0.00,,---,0.00,VWS V14.01,2013-03-27 11:30:00,
2013-03-27 06:35:00,34.0,25.6,30.25,SE,126,0.0,2.0,71,0.00,,---,0.00,VWS V14.01,2013-03-27 11:35:00,
2013-03-27 06:40:00,34.0,25.9,30.25,SE,126,4.0,4.0,72,0.00,,---,0.00,VWS V14.01,2013-03-27 11:40:00,
2013-03-27 06:45:00,34.1,26.0,30.25,SE,126,2.0,2.0,72,0.00,,---,0.00,VWS V14.01,2013-03-27 11:45:00,
2013-03-27 06:50:00,34.1,26.0,30.26,SE,126,2.0,2.0,72,0.00,,---,0.00,VWS V14.01,2013-03-27 11:50:00,
2013-03-27 06:55:00,34.0,25.9,30.26,SE,126,4.0,4.0,72,0.00,,---,0.00,VWS V14.01,2013-03-27 11:55:00,
2013-03-27 07:00:00,33.9,26.2,30.26,SE,126,2.0,3.0,73,0.00,,---,0.00,VWS V14.01,2013-03-27 12:00:00,
2013-03-27 07:05:00,33.8,26.1,30.26,SE,126,4.0,4.0,73,0.00,,---,0.00,VWS V14.01,2013-03-27 12:05:00,
2013-03-27 07:10:00,33.8,26.1,30.26,SE,124,4.0,4.0,73,0.00,,---,0.00,VWS V14.01,2013-03-27 12:10:00,
2013-03-27 07:15:00,33.8,26.4,30.26,ESE,121,6.0,6.0,74,0.00,,---,0.00,VWS V14.01,2013-03-27 12:15:00,
2013-03-27 07:20:00,33.7,26.3,30.26,ESE,121,2.0,3.0,74,0.00,,---,0.00,VWS V14.01,2013-03-27 12:20:00,
2013-03-27 07:25:00,33.5,26.1,30.26,ESE,121,4.0,4.0,74,0.00,,---,0.00,VWS V14.01,2013-03-27 12:25:00,
2013-03-27 07:30:00,33.5,26.4,30.26,ESE,121,6.0,6.0,75,0.00,,---,0.00,VWS V14.01,2013-03-27 12:30:00,
2013-03-27 07:35:00,33.7,26.3,30.26,SE,130,6.0,7.0,74,0.00,,---,0.00,VWS V14.01,2013-03-27 12:35:00,
2013-03-27 07:40:00,34.0,26.6,30.26,SE,138,4.0,4.0,74,0.00,,---,0.00,VWS V14.01,2013-03-27 12:40:00,
2013-03-27 07:45:00,34.3,26.6,30.27,SE,128,10.0,10.0,73,0.00,,---,0.00,VWS V14.01,2013-03-27 12:45:00,
2013-03-27 07:50:00,34.7,26.6,30.27,ESE,107,8.0,8.0,72,0.00,,---,0.00,VWS V14.01,2013-03-27 12:50:00,
2013-03-27 07:55:00,35.0,26.6,30.27,SSE,154,12.0,12.0,71,0.00,,---,0.00,VWS V14.01,2013-03-27 12:55:00,
2013-03-27 08:00:00,35.3,26.5,30.27,SE,142,12.0,12.0,70,0.00,,---,0.00,VWS V14.01,2013-03-27 13:00:00,
2013-03-27 08:05:00,35.7,26.5,30.27,ESE,123,10.0,10.0,69,0.00,,---,0.00,VWS V14.01,2013-03-27 13:05:00,
2013-03-27 08:10:00,36.1,26.6,30.27,ESE,122,8.0,8.0,68,0.00,,---,0.00,VWS V14.01,2013-03-27 13:10:00,
2013-03-27 08:15:00,36.5,27.0,30.27,SE,137,6.0,6.0,68,0.00,,---,0.00,VWS V14.01,2013-03-27 13:15:00,
2013-03-27 08:20:00,36.8,26.9,30.27,SSE,155,12.0,12.0,67,0.00,,---,0.00,VWS V14.01,2013-03-27 13:20:00,
2013-03-27 08:25:00,37.1,27.2,30.28,SE,146,8.0,8.0,67,0.00,,---,0.00,VWS V14.01,2013-03-27 13:25:00,
2013-03-27 08:30:00,37.4,27.5,30.28,East,89,18.0,18.0,67,0.00,,---,0.00,VWS V14.01,2013-03-27 13:30:00,
2013-03-27 08:35:00,37.8,27.5,30.28,ESE,104,10.0,10.0,66,0.00,,---,0.00,VWS V14.01,2013-03-27 13:35:00,
2013-03-27 08:40:00,38.1,27.4,30.28,ESE,123,8.0,8.0,65,0.00,,---,0.00,VWS V14.01,2013-03-27 13:40:00,
2013-03-27 08:45:00,38.4,27.7,30.28,SE,144,6.0,8.0,65,0.00,,---,0.00,VWS V14.01,2013-03-27 13:45:00,
2013-03-27 08:50:00,38.8,27.7,30.28,SE,136,14.0,14.0,64,0.00,,---,0.00,VWS V14.01,2013-03-27 13:50:00,
2013-03-27 08:55:00,39.0,27.9,30.28,SE,143,16.0,16.0,64,0.00,,---,0.00,VWS V14.01,2013-03-27 13:55:00,
2013-03-27 09:00:00,39.3,27.8,30.28,SSE,147,4.0,7.0,63,0.00,,---,0.00,VWS V14.01,2013-03-27 14:00:00,
2013-03-27 09:05:00,39.9,28.7,30.28,SE,126,8.0,8.0,64,0.00,,---,0.00,VWS V14.01,2013-03-27 14:05:00,
2013-03-27 09:10:00,40.2,28.6,30.28,SE,135,8.0,8.0,63,0.00,,---,0.00,VWS V14.01,2013-03-27 14:10:00,
2013-03-27 09:15:00,40.6,28.6,30.28,SSE,153,10.0,10.0,62,0.00,,---,0.00,VWS V14.01,2013-03-27 14:15:00,
2013-03-27 09:20:00,41.2,29.2,30.28,SSE,160,14.0,14.0,62,0.00,,---,0.00,VWS V14.01,2013-03-27 14:20:00,
2013-03-27 09:25:00,41.7,29.3,30.28,SE,135,6.0,6.0,61,0.00,,---,0.00,VWS V14.01,2013-03-27 14:25:00,
2013-03-27 09:30:00,42.4,29.9,30.27,SSE,150,14.0,14.0,61,0.00,,---,0.00,VWS V14.01,2013-03-27 14:30:00,
2013-03-27 09:35:00,43.0,29.2,30.27,SSE,152,10.0,10.0,58,0.00,,---,0.00,VWS V14.01,2013-03-27 14:35:00,
2013-03-27 09:40:00,43.4,29.6,30.27,SSE,151,16.0,16.0,58,0.00,,---,0.00,VWS V14.01,2013-03-27 14:40:00,
2013-03-27 09:45:00,43.8,30.0,30.27,South,175,4.0,5.0,58,0.00,,---,0.00,VWS V14.01,2013-03-27 14:45:00,
2013-03-27 09:50:00,44.9,30.2,30.27,SE,132,4.0,4.0,56,0.00,,---,0.00,VWS V14.01,2013-03-27 14:50:00,
2013-03-27 09:55:00,45.5,30.3,30.26,SSE,148,14.0,14.0,55,0.00,,---,0.00,VWS V14.01,2013-03-27 14:55:00,
2013-03-27 10:00:00,46.0,29.8,30.26,SE,130,10.0,10.0,53,0.00,,---,0.00,VWS V14.01,2013-03-27 15:00:00,
2013-03-27 10:05:00,46.3,30.1,30.26,SE,143,12.0,12.0,53,0.00,,---,0.00,VWS V14.01,2013-03-27 15:05:00,
2013-03-27 10:10:00,46.6,29.5,30.26,South,169,14.0,14.0,51,0.00,,---,0.00,VWS V14.01,2013-03-27 15:10:00,
2013-03-27 10:15:00,46.6,29.9,30.26,SSE,168,8.0,10.0,52,0.00,,---,0.00,VWS V14.01,2013-03-27 15:15:00,
2013-03-27 10:20:00,47.0,29.8,30.26,SSE,150,10.0,11.0,51,0.00,,---,0.00,VWS V14.01,2013-03-27 15:20:00,
2013-03-27 10:25:00,47.9,30.2,30.26,SSE,157,18.0,18.0,50,0.00,,---,0.00,VWS V14.01,2013-03-27 15:25:00,
2013-03-27 10:30:00,48.1,30.4,30.26,SSE,163,10.0,11.0,50,0.00,,---,0.00,VWS V14.01,2013-03-27 15:30:00,
2013-03-27 10:35:00,48.3,30.0,30.25,South,178,18.0,18.0,49,0.00,,---,0.00,VWS V14.01,2013-03-27 15:35:00,
2013-03-27 10:40:00,48.8,31.0,30.25,South,171,16.0,16.0,50,0.00,,---,0.00,VWS V14.01,2013-03-27 15:40:00,
2013-03-27 10:45:00,49.4,30.0,30.25,South,175,6.0,9.0,47,0.00,,---,0.00,VWS V14.01,2013-03-27 15:45:00,
2013-03-27 10:50:00,49.6,30.2,30.26,SE,143,10.0,10.0,47,0.00,,---,0.00,VWS V14.01,2013-03-27 15:50:00,
2013-03-27 10:55:00,50.6,30.6,30.25,South,180,16.0,16.0,46,0.00,,---,0.00,VWS V14.01,2013-03-27 15:55:00,
2013-03-27 11:00:00,50.6,30.1,30.25,SSE,153,22.0,22.0,45,0.00,,---,0.00,VWS V14.01,2013-03-27 16:00:00,
2013-03-27 11:05:00,51.9,31.2,30.25,South,172,20.0,20.0,45,0.00,,---,0.00,VWS V14.01,2013-03-27 16:05:00,
2013-03-27 11:10:00,52.2,31.0,30.25,South,180,22.0,22.0,44,0.00,,---,0.00,VWS V14.01,2013-03-27 16:10:00,
2013-03-27 11:15:00,52.0,30.8,30.24,SSE,154,26.0,26.0,44,0.00,,---,0.00,VWS V14.01,2013-03-27 16:15:00,
2013-03-27 11:20:00,52.6,31.9,30.24,SSE,164,10.0,10.0,45,0.00,,---,0.00,VWS V14.01,2013-03-27 16:20:00,
2013-03-27 11:25:00,53.6,30.5,30.24,SE,146,10.0,11.0,41,0.00,,---,0.00,VWS V14.01,2013-03-27 16:25:00,
2013-03-27 11:30:00,54.1,30.3,30.24,SSE,160,14.0,14.0,40,0.00,,---,0.00,VWS V14.01,2013-03-27 16:30:00,
2013-03-27 11:35:00,54.6,30.8,30.24,South,173,20.0,20.0,40,0.00,,---,0.00,VWS V14.01,2013-03-27 16:35:00,
2013-03-27 11:40:00,55.4,31.5,30.24,SSE,148,28.0,28.0,40,0.00,,---,0.00,VWS V14.01,2013-03-27 16:40:00,
2013-03-27 11:45:00,55.0,29.9,30.24,SE,128,14.0,14.0,38,0.00,,---,0.00,VWS V14.01,2013-03-27 16:45:00,
2013-03-27 11:50:00,55.4,29.6,30.23,South,174,24.0,24.0,37,0.00,,---,0.00,VWS V14.01,2013-03-27 16:50:00,
2013-03-27 11:55:00,55.1,29.3,30.23,SSE,167,14.0,14.0,37,0.00,,---,0.00,VWS V14.01,2013-03-27 16:55:00,
2013-03-27 12:00:00,56.0,30.1,30.23,South,190,24.0,24.0,37,0.00,,---,0.00,VWS V14.01,2013-03-27 17:00:00,
2013-03-27 12:05:00,55.6,29.8,30.21,SE,146,20.0,20.0,37,0.00,,---,0.00,VWS V14.01,2013-03-27 17:05:00,
2013-03-27 12:10:00,55.3,29.5,30.22,South,173,14.0,14.0,37,0.00,,---,0.00,VWS V14.01,2013-03-27 17:10:00,
2013-03-27 12:15:00,56.2,29.6,30.21,SE,133,16.0,16.0,36,0.00,,---,0.00,VWS V14.01,2013-03-27 17:15:00,
2013-03-27 12:20:00,57.3,30.6,30.20,South,172,20.0,20.0,36,0.00,,---,0.00,VWS V14.01,2013-03-27 17:20:00,
2013-03-27 12:25:00,57.2,29.8,30.20,South,183,18.0,18.0,35,0.00,,---,0.00,VWS V14.01,2013-03-27 17:25:00,
2013-03-27 12:30:00,57.3,30.6,30.20,ESE,118,14.0,14.0,36,0.00,,---,0.00,VWS V14.01,2013-03-27 17:30:00,
2013-03-27 12:35:00,57.4,30.0,30.20,South,171,24.0,24.0,35,0.00,,---,0.00,VWS V14.01,2013-03-27 17:35:00,
2013-03-27 12:40:00,57.6,30.2,30.19,SSE,163,12.0,12.0,35,0.00,,---,0.00,VWS V14.01,2013-03-27 17:40:00,
2013-03-27 12:45:00,57.8,30.4,30.19,SSE,166,22.0,22.0,35,0.00,,---,0.00,VWS V14.01,2013-03-27 17:45:00,
2013-03-27 12:50:00,58.4,30.9,30.19,South,172,12.0,12.0,35,0.00,,---,0.00,VWS V14.01,2013-03-27 17:50:00,
2013-03-27 12:55:00,59.5,31.1,30.19,SSE,148,8.0,11.0,34,0.00,,---,0.00,VWS V14.01,2013-03-27 17:55:00,
2013-03-27 13:00:00,60.0,30.8,30.19,South,180,18.0,18.0,33,0.00,,---,0.00,VWS V14.01,2013-03-27 18:00:00,
2013-03-27 13:05:00,59.1,30.0,30.18,South,178,18.0,18.0,33,0.00,,---,0.00,VWS V14.01,2013-03-27 18:05:00,
2013-03-27 13:10:00,59.1,29.3,30.18,SSE,161,12.0,12.0,32,0.00,,---,0.00,VWS V14.01,2013-03-27 18:10:00,
2013-03-27 13:15:00,58.9,30.6,30.18,South,171,18.0,18.0,34,0.00,,---,0.00,VWS V14.01,2013-03-27 18:15:00,
2013-03-27 13:20:00,58.9,29.9,30.18,South,178,20.0,20.0,33,0.00,,---,0.00,VWS V14.01,2013-03-27 18:20:00,
2013-03-27 13:25:00,58.6,29.6,30.18,SSE,158,26.0,26.0,33,0.00,,---,0.00,VWS V14.01,2013-03-27 18:25:00,
2013-03-27 13:30:00,59.3,31.0,30.18,SSE,159,10.0,10.0,34,0.00,,---,0.00,VWS V14.01,2013-03-27 18:30:00,
2013-03-27 13:35:00,59.7,30.6,30.17,SE,126,20.0,20.0,33,0.00,,---,0.00,VWS V14.01,2013-03-27 18:35:00,
2013-03-27 13:40:00,59.8,31.4,30.17,SSE,150,8.0,11.0,34,0.00,,---,0.00,VWS V14.01,2013-03-27 18:40:00,
2013-03-27 13:45:00,60.4,30.4,30.17,SE,142,8.0,13.0,32,0.00,,---,0.00,VWS V14.01,2013-03-27 18:45:00,
2013-03-27 13:50:00,59.7,31.3,30.16,ESE,110,24.0,24.0,34,0.00,,---,0.00,VWS V14.01,2013-03-27 18:50:00,
2013-03-27 13:55:00,58.9,29.9,30.16,ESE,122,10.0,13.0,33,0.00,,---,0.00,VWS V14.01,2013-03-27 18:55:00,
2013-03-27 14:00:00,59.2,30.9,30.15,SE,126,10.0,12.0,34,0.00,,---,0.00,VWS V14.01,2013-03-27 19:00:00,
2013-03-27 14:05:00,59.2,30.9,30.15,SSE,149,18.0,18.0,34,0.00,,---,0.00,VWS V14.01,2013-03-27 19:05:00,
2013-03-27 14:10:00,59.5,31.1,30.14,South,169,10.0,10.0,34,0.00,,---,0.00,VWS V14.01,2013-03-27 19:10:00,
2013-03-27 14:15:00,60.2,31.8,30.14,ESE,119,24.0,24.0,34,0.00,,---,0.00,VWS V14.01,2013-03-27 19:15:00,
2013-03-27 14:20:00,60.3,31.1,30.13,SSE,148,16.0,16.0,33,0.00,,---,0.00,VWS V14.01,2013-03-27 19:20:00,
2013-03-27 14:25:00,61.9,31.7,30.12,SE,146,16.0,16.0,32,0.00,,---,0.00,VWS V14.01,2013-03-27 19:25:00,
2013-03-27 14:30:00,62.0,31.8,30.13,SE,143,16.0,16.0,32,0.00,,---,0.00,VWS V14.01,2013-03-27 19:30:00,
2013-03-27 14:35:00,61.1,31.0,30.12,SSE,159,26.0,26.0,32,0.00,,---,0.00,VWS V14.01,2013-03-27 19:35:00,
2013-03-27 14:40:00,60.5,30.5,30.12,SSE,167,12.0,12.0,32,0.00,,---,0.00,VWS V14.01,2013-03-27 19:40:00,
2013-03-27 14:45:00,61.0,31.7,30.12,South,179,16.0,16.0,33,0.00,,---,0.00,VWS V14.01,2013-03-27 19:45:00,
2013-03-27 14:50:00,62.6,33.9,30.12,South,169,18.0,18.0,34,0.00,,---,0.00,VWS V14.01,2013-03-27 19:50:00,
2013-03-27 14:55:00,64.0,32.0,30.11,SE,132,12.0,15.0,30,0.00,,---,0.00,VWS V14.01,2013-03-27 19:55:00,
2013-03-27 15:00:00,63.8,31.8,30.11,SE,142,28.0,28.0,30,0.00,,---,0.00,VWS V14.01,2013-03-27 20:00:00,
2013-03-27 15:05:00,64.0,32.0,30.11,SSE,159,6.0,7.0,30,0.00,,---,0.00,VWS V14.01,2013-03-27 20:05:00,
2013-03-27 15:10:00,64.3,33.0,30.11,ESE,123,24.0,24.0,31,0.00,,---,0.00,VWS V14.01,2013-03-27 20:10:00,
2013-03-27 15:15:00,63.8,31.8,30.11,ESE,114,14.0,14.0,30,0.00,,---,0.00,VWS V14.01,2013-03-27 20:15:00,
2013-03-27 15:20:00,64.1,32.1,30.11,SSE,167,18.0,18.0,30,0.00,,---,0.00,VWS V14.01,2013-03-27 20:20:00,
2013-03-27 15:25:00,63.8,31.8,30.11,South,179,16.0,16.0,30,0.00,,---,0.00,VWS V14.01,2013-03-27 20:25:00,
2013-03-27 15:30:00,63.7,31.7,30.10,SSE,155,18.0,18.0,30,0.00,,---,0.00,VWS V14.01,2013-03-27 20:30:00,
2013-03-27 15:35:00,64.1,32.1,30.10,SE,137,8.0,13.0,30,0.00,,---,0.00,VWS V14.01,2013-03-27 20:35:00,
2013-03-27 15:40:00,63.9,31.9,30.10,SSE,166,12.0,12.0,30,0.00,,---,0.00,VWS V14.01,2013-03-27 20:40:00,
2013-03-27 15:45:00,64.5,33.2,30.09,SSE,160,16.0,16.0,31,0.00,,---,0.00,VWS V14.01,2013-03-27 20:45:00,
2013-03-27 15:50:00,64.3,33.0,30.09,South,182,12.0,12.0,31,0.00,,---,0.00,VWS V14.01,2013-03-27 20:50:00,
2013-03-27 15:55:00,65.0,33.7,30.09,South,170,8.0,8.0,31,0.00,,---,0.00,VWS V14.01,2013-03-27 20:55:00,
2013-03-27 16:00:00,65.3,33.1,30.09,SSE,164,14.0,14.0,30,0.00,,---,0.00,VWS V14.01,2013-03-27 21:00:00,
2013-03-27 16:05:00,65.1,32.9,30.08,SSE,156,20.0,20.0,30,0.00,,---,0.00,VWS V14.01,2013-03-27 21:05:00,
2013-03-27 16:10:00,64.7,33.4,30.08,SSE,156,16.0,16.0,31,0.00,,---,0.00,VWS V14.01,2013-03-27 21:10:00,
2013-03-27 16:15:00,64.8,32.7,30.08,South,175,16.0,16.0,30,0.00,,---,0.00,VWS V14.01,2013-03-27 21:15:00,
2013-03-27 16:20:00,64.7,33.4,30.08,SE,132,6.0,8.0,31,0.00,,---,0.00,VWS V14.01,2013-03-27 21:20:00,
2013-03-27 16:25:00,65.2,33.0,30.08,SSE,165,14.0,14.0,30,0.00,,---,0.00,VWS V14.01,2013-03-27 21:25:00,
2013-03-27 16:30:00,65.0,32.8,30.08,South,171,22.0,22.0,30,0.00,,---,0.00,VWS V14.01,2013-03-27 21:30:00,
2013-03-27 16:35:00,65.2,33.0,30.08,ESE,121,20.0,20.0,30,0.00,,---,0.00,VWS V14.01,2013-03-27 21:35:00,
2013-03-27 16:40:00,65.1,33.7,30.09,SSE,164,10.0,10.0,31,0.00,,---,0.00,VWS V14.01,2013-03-27 21:40:00,
2013-03-27 16:45:00,65.3,33.1,30.08,SSE,153,10.0,10.0,30,0.00,,---,0.00,VWS V14.01,2013-03-27 21:45:00,
2013-03-27 16:50:00,65.6,34.2,30.08,SSE,148,18.0,18.0,31,0.00,,---,0.00,VWS V14.01,2013-03-27 21:50:00,
2013-03-27 16:55:00,65.3,34.7,30.08,SSE,159,10.0,10.0,32,0.00,,---,0.00,VWS V14.01,2013-03-27 21:55:00,
2013-03-27 17:00:00,65.3,33.9,30.08,SSE,148,14.0,14.0,31,0.00,,---,0.00,VWS V14.01,2013-03-27 22:00:00,
2013-03-27 17:05:00,65.6,33.4,30.08,SE,138,14.0,14.0,30,0.00,,---,0.00,VWS V14.01,2013-03-27 22:05:00,
2013-03-27 17:10:00,65.7,34.3,30.08,South,180,24.0,24.0,31,0.00,,---,0.00,VWS V14.01,2013-03-27 22:10:00,
2013-03-27 17:15:00,65.8,34.3,30.08,SSW,192,16.0,16.0,31,0.00,,---,0.00,VWS V14.01,2013-03-27 22:15:00,
2013-03-27 17:20:00,65.6,34.2,30.08,SSE,167,10.0,12.0,31,0.00,,---,0.00,VWS V14.01,2013-03-27 22:20:00,
2013-03-27 17:25:00,65.5,34.1,30.08,South,169,16.0,16.0,31,0.00,,---,0.00,VWS V14.01,2013-03-27 22:25:00,
2013-03-27 17:30:00,65.4,34.8,30.08,South,176,6.0,6.0,32,0.00,,---,0.00,VWS V14.01,2013-03-27 22:30:00,
2013-03-27 17:35:00,65.8,35.2,30.08,South,169,12.0,12.0,32,0.00,,---,0.00,VWS V14.01,2013-03-27 22:35:00,
2013-03-27 17:40:00,65.6,35.0,30.08,SSE,165,14.0,14.0,32,0.00,,---,0.00,VWS V14.01,2013-03-27 22:40:00,
2013-03-27 17:45:00,65.2,34.6,30.08,SSE,164,16.0,16.0,32,0.00,,---,0.00,VWS V14.01,2013-03-27 22:45:00,
2013-03-27 17:50:00,65.2,34.6,30.08,SSE,159,8.0,8.0,32,0.00,,---,0.00,VWS V14.01,2013-03-27 22:50:00,
2013-03-27 17:55:00,65.1,35.3,30.08,SSE,165,12.0,12.0,33,0.00,,---,0.00,VWS V14.01,2013-03-27 22:55:00,
2013-03-27 18:00:00,65.5,34.9,30.08,SSE,161,12.0,12.0,32,0.00,,---,0.00,VWS V14.01,2013-03-27 23:00:00,
2013-03-27 18:05:00,65.1,34.5,30.08,SSE,161,12.0,12.0,32,0.00,,---,0.00,VWS V14.01,2013-03-27 23:05:00,
2013-03-27 18:10:00,65.2,35.4,30.08,SE,140,10.0,10.0,33,0.00,,---,0.00,VWS V14.01,2013-03-27 23:10:00,
2013-03-27 18:15:00,64.7,34.2,30.08,SSE,151,10.0,10.0,32,0.00,,---,0.00,VWS V14.01,2013-03-27 23:15:00,
2013-03-27 18:20:00,64.8,35.0,30.08,SE,144,8.0,8.0,33,0.00,,---,0.00,VWS V14.01,2013-03-27 23:20:00,
2013-03-27 18:25:00,64.6,34.1,30.08,SSE,165,8.0,8.0,32,0.00,,---,0.00,VWS V14.01,2013-03-27 23:25:00,
2013-03-27 18:30:00,64.5,34.8,30.08,SSE,155,12.0,12.0,33,0.00,,---,0.00,VWS V14.01,2013-03-27 23:30:00,
2013-03-27 18:35:00,64.4,34.7,30.08,SE,139,8.0,8.0,33,0.00,,---,0.00,VWS V14.01,2013-03-27 23:35:00,
2013-03-27 18:40:00,64.3,34.6,30.08,SSE,167,10.0,10.0,33,0.00,,---,0.00,VWS V14.01,2013-03-27 23:40:00,
2013-03-27 18:45:00,64.2,34.5,30.08,SE,130,6.0,6.0,33,0.00,,---,0.00,VWS V14.01,2013-03-27 23:45:00,
2013-03-27 18:50:00,64.0,34.3,30.08,SE,134,6.0,6.0,33,0.00,,---,0.00,VWS V14.01,2013-03-27 23:50:00,
2013-03-27 18:55:00,63.7,34.1,30.08,SE,138,18.0,18.0,33,0.00,,---,0.00,VWS V14.01,2013-03-27 23:55:00,
2013-03-27 19:00:00,63.4,34.6,30.08,SSE,150,16.0,16.0,34,0.00,,---,0.00,VWS V14.01,2013-03-28 00:00:00,
2013-03-27 19:05:00,63.1,34.3,30.09,SSE,153,12.0,12.0,34,0.00,,---,0.00,VWS V14.01,2013-03-28 00:05:00,
2013-03-27 19:10:00,62.9,34.1,30.09,SE,144,10.0,10.0,34,0.00,,---,0.00,VWS V14.01,2013-03-28 00:10:00,
2013-03-27 19:15:00,62.6,34.6,30.09,SE,146,8.0,8.0,35,0.00,,---,0.00,VWS V14.01,2013-03-28 00:15:00,
2013-03-27 19:20:00,62.2,34.2,30.09,SSE,166,4.0,4.0,35,0.00,,---,0.00,VWS V14.01,2013-03-28 00:20:00,
2013-03-27 19:25:00,61.8,34.6,30.09,SE,142,4.0,4.0,36,0.00,,---,0.00,VWS V14.01,2013-03-28 00:25:00,
2013-03-27 19:30:00,61.4,34.2,30.09,SE,140,6.0,6.0,36,0.00,,---,0.00,VWS V14.01,2013-03-28 00:30:00,
2013-03-27 19:35:00,61.0,34.6,30.09,SE,143,4.0,4.0,37,0.00,,---,0.00,VWS V14.01,2013-03-28 00:35:00,
2013-03-27 19:40:00,60.7,34.3,30.09,SE,142,4.0,4.0,37,0.00,,---,0.00,VWS V14.01,2013-03-28 00:40:00,
2013-03-27 19:45:00,60.4,34.7,30.09,SE,133,6.0,6.0,38,0.00,,---,0.00,VWS V14.01,2013-03-28 00:45:00,
2013-03-27 19:50:00,60.2,34.5,30.09,ESE,118,6.0,6.0,38,0.00,,---,0.00,VWS V14.01,2013-03-28 00:50:00,
2013-03-27 19:55:00,60.0,34.3,30.09,SSE,160,2.0,2.0,38,0.00,,---,0.00,VWS V14.01,2013-03-28 00:55:00,
2013-03-27 20:00:00,59.7,34.7,30.10,SE,136,6.0,6.0,39,0.00,,---,0.00,VWS V14.01,2013-03-28 01:00:00,
2013-03-27 20:05:00,59.5,34.5,30.10,SE,139,6.0,6.0,39,0.00,,---,0.00,VWS V14.01,2013-03-28 01:05:00,
2013-03-27 20:10:00,59.5,34.5,30.10,SE,132,2.0,2.0,39,0.00,,---,0.00,VWS V14.01,2013-03-28 01:10:00,
2013-03-27 20:15:00,59.3,34.4,30.10,SE,142,10.0,10.0,39,0.00,,---,0.00,VWS V14.01,2013-03-28 01:15:00,
2013-03-27 20:20:00,59.1,34.2,30.10,SE,145,12.0,12.0,39,0.00,,---,0.00,VWS V14.01,2013-03-28 01:20:00,
2013-03-27 20:25:00,59.0,34.7,30.10,SSE,156,10.0,10.0,40,0.00,,---,0.00,VWS V14.01,2013-03-28 01:25:00,
2013-03-27 20:30:00,58.8,34.5,30.10,SE,134,8.0,8.0,40,0.00,,---,0.00,VWS V14.01,2013-03-28 01:30:00,
2013-03-27 20:35:00,58.6,34.4,30.10,SE,135,8.0,8.0,40,0.00,,---,0.00,VWS V14.01,2013-03-28 01:35:00,
2013-03-27 20:40:00,58.5,34.3,30.10,SE,136,2.0,2.0,40,0.00,,---,0.00,VWS V14.01,2013-03-28 01:40:00,
2013-03-27 20:45:00,58.3,33.5,30.11,SE,131,6.0,6.0,39,0.00,,---,0.00,VWS V14.01,2013-03-28 01:45:00,
2013-03-27 20:50:00,58.3,34.1,30.11,SE,135,6.0,6.0,40,0.00,,---,0.00,VWS V14.01,2013-03-28 01:50:00,
2013-03-27 20:55:00,58.0,33.8,30.11,SE,141,10.0,10.0,40,0.00,,---,0.00,VWS V14.01,2013-03-28 01:55:00,
2013-03-27 21:00:00,57.8,33.7,30.11,SE,139,6.0,6.0,40,0.00,,---,0.00,VWS V14.01,2013-03-28 02:00:00,
2013-03-27 21:05:00,57.7,33.6,30.11,SE,130,4.0,4.0,40,0.00,,---,0.00,VWS V14.01,2013-03-28 02:05:00,
2013-03-27 21:10:00,57.6,33.5,30.11,SSE,159,4.0,4.0,40,0.00,,---,0.00,VWS V14.01,2013-03-28 02:10:00,
2013-03-27 21:15:00,57.5,33.4,30.11,SSE,155,10.0,10.0,40,0.00,,---,0.00,VWS V14.01,2013-03-28 02:15:00,
2013-03-27 21:20:00,57.4,33.9,30.11,SE,141,6.0,6.0,41,0.00,,---,0.00,VWS V14.01,2013-03-28 02:20:00,
2013-03-27 21:25:00,57.2,33.7,30.12,SSE,150,4.0,4.0,41,0.00,,---,0.00,VWS V14.01,2013-03-28 02:25:00,
2013-03-27 21:30:00,57.3,33.8,30.12,SE,134,2.0,3.0,41,0.00,,---,0.00,VWS V14.01,2013-03-28 02:30:00,
2013-03-27 21:35:00,57.3,33.8,30.12,SE,127,6.0,7.0,41,0.00,,---,0.00,VWS V14.01,2013-03-28 02:35:00,
2013-03-27 21:40:00,57.3,33.8,30.12,SE,144,4.0,4.0,41,0.00,,---,0.00,VWS V14.01,2013-03-28 02:40:00,
2013-03-27 21:45:00,57.2,33.7,30.12,SE,133,6.0,6.0,41,0.00,,---,0.00,VWS V14.01,2013-03-28 02:45:00,
2013-03-27 21:50:00,57.3,33.8,30.12,SE,136,8.0,8.0,41,0.00,,---,0.00,VWS V14.01,2013-03-28 02:50:00,
2013-03-27 21:55:00,57.2,33.7,30.12,SE,134,14.0,14.0,41,0.00,,---,0.00,VWS V14.01,2013-03-28 02:55:00,
2013-03-27 22:00:00,57.1,33.6,30.12,SE,133,6.0,8.0,41,0.00,,---,0.00,VWS V14.01,2013-03-28 03:00:00,
2013-03-27 22:05:00,56.9,34.1,30.12,SE,143,8.0,8.0,42,0.00,,---,0.00,VWS V14.01,2013-03-28 03:05:00,
2013-03-27 22:10:00,56.8,34.0,30.13,SSE,149,8.0,8.0,42,0.00,,---,0.00,VWS V14.01,2013-03-28 03:10:00,
2013-03-27 22:15:00,56.6,33.8,30.12,SE,141,6.0,6.0,42,0.00,,---,0.00,VWS V14.01,2013-03-28 03:15:00,
2013-03-27 22:20:00,56.4,34.2,30.13,SSE,154,4.0,4.0,43,0.00,,---,0.00,VWS V14.01,2013-03-28 03:20:00,
2013-03-27 22:25:00,56.2,34.0,30.13,SE,142,12.0,12.0,43,0.00,,---,0.00,VWS V14.01,2013-03-28 03:25:00,
2013-03-27 22:30:00,56.3,34.1,30.13,SSE,154,10.0,10.0,43,0.00,,---,0.00,VWS V14.01,2013-03-28 03:30:00,
2013-03-27 22:35:00,56.4,34.2,30.13,SSE,149,8.0,8.0,43,0.00,,---,0.00,VWS V14.01,2013-03-28 03:35:00,
2013-03-27 22:40:00,56.3,33.5,30.13,SE,136,8.0,8.0,42,0.00,,---,0.00,VWS V14.01,2013-03-28 03:40:00,
2013-03-27 22:45:00,56.2,34.0,30.13,SSE,159,14.0,14.0,43,0.00,,---,0.00,VWS V14.01,2013-03-28 03:45:00,
2013-03-27 22:50:00,56.0,33.8,30.13,SSE,155,4.0,4.0,43,0.00,,---,0.00,VWS V14.01,2013-03-28 03:50:00,
2013-03-27 22:55:00,55.9,33.8,30.13,SE,139,6.0,6.0,43,0.00,,---,0.00,VWS V14.01,2013-03-28 03:55:00,
2013-03-27 23:00:00,55.7,33.6,30.13,SSE,149,6.0,6.0,43,0.00,,---,0.00,VWS V14.01,2013-03-28 04:00:00,
2013-03-27 23:05:00,55.8,33.7,30.13,SE,140,8.0,8.0,43,0.00,,---,0.00,VWS V14.01,2013-03-28 04:05:00,
2013-03-27 23:10:00,55.8,33.7,30.13,SE,144,6.0,6.0,43,0.00,,---,0.00,VWS V14.01,2013-03-28 04:10:00,
2013-03-27 23:15:00,55.7,33.0,30.13,SE,139,4.0,4.0,42,0.00,,---,0.00,VWS V14.01,2013-03-28 04:15:00,
2013-03-27 23:20:00,55.6,33.5,30.13,SE,140,8.0,8.0,43,0.00,,---,0.00,VWS V14.01,2013-03-28 04:20:00,
2013-03-27 23:25:00,55.5,33.4,30.13,SSE,153,8.0,8.0,43,0.00,,---,0.00,VWS V14.01,2013-03-28 04:25:00,
2013-03-27 23:30:00,55.3,33.2,30.13,SE,144,8.0,8.0,43,0.00,,---,0.00,VWS V14.01,2013-03-28 04:30:00,
2013-03-27 23:35:00,55.1,33.0,30.13,SSE,154,8.0,8.0,43,0.00,,---,0.00,VWS V14.01,2013-03-28 04:35:00,
2013-03-27 23:40:00,54.9,32.8,30.13,SE,144,10.0,10.0,43,0.00,,---,0.00,VWS V14.01,2013-03-28 04:40:00,
2013-03-27 23:45:00,54.9,32.8,30.13,SSE,150,8.0,8.0,43,0.00,,---,0.00,VWS V14.01,2013-03-28 04:45:00,
2013-03-27 23:50:00,54.8,32.8,30.13,SE,137,4.0,4.0,43,0.00,,---,0.00,VWS V14.01,2013-03-28 04:50:00,
2013-03-27 23:55:00,54.7,32.7,30.13,SE,145,4.0,4.0,43,0.00,,---,0.00,VWS V14.01,2013-03-28 04:55:00,